Location: ???????
(55.2903°N, 39.1554°E)
Time: 11:52:21
(UTC+00:00)

S3M - Pass Details

Date: 14 April 2024
Orbit: 949 x 1003 km, 83.0° (Epoch: 27 May)

Event Time Altitude Azimuth Distance (km) Brightness Sun altitude
Rises 01:27:07 0° 348° (NNW) 3,640 7.2 -7.9°
Reaches altitude 10° 01:29:37 10° 349° (NNW) 2,694 6.6 -7.6°
Maximum altitude 01:35:48 89° 74° (ENE) 968 4.1 -6.8°
Drops below altitude 10° 01:42:00 10° 171° (S) 2,704 6.2 -6.0°
Sets 01:44:30 0° 171° (S) 3,654 6.8 -5.7°
